Rbgn^[z[y[W
メイン
   新天体発見情報
     Comet C/2020 U5 (PANSTARRS)
投稿するにはまず登録を

スレッド表示 | 古いものから 前のトピック | 次のトピック | 下へ
投稿者 スレッド
佐藤裕久
投稿日時: 2020-11-3 21:43
モデレータ
登録日: 2005-6-12
居住地: 日本
投稿: 2663
オンライン
Comet C/2020 U5 (PANSTARRS)

R. WerykとY. Ramanjooloo (ハワイ大学, 天文学研究所)の通報によると、10月22日、Haleakalaに
あるPan-STARRS1 1.8-m Ritchey-Chretien反射望遠鏡で得た4枚の45秒w-バンドCCD画像から彗星を
発見した。
R. Werykは、この彗星の発見画像は、p.a. 220°に約4"の尾が見え、1".3のシーイングで2".1 (半
値全幅:FWHM)の拡散したコマがあると注記した。
10月23.9日UT、4枚の60秒w-バンドPan-STARRS1の画像は、p.a. 160-220°にわたって約4"の広い
尾が見え、1".2のシーイングで2".1 (FWHM)の拡散したコマがある。
R. Werykは、また9月25.6日に得た、4枚の45秒w-バンド発見前のPan-STARRS1画像を同定した。
尾はない。しかし、1".5のシーイングで約2".6  (FWHM)の拡散したコマがある。
小惑星センターのPCCP webpageに公表後、佐藤英貴氏(東京都文京区, 10月24.46日, 120秒露出8枚
のスタック, 0.43-m f/6.8 アストログラフ, Mayhill近郊, NM, 遠隔操作:強く集光した6"のコマ
が見えるが尾はない。5".7の円形範囲で測定した光度は19.3等であった)や池村俊彦氏と佐藤裕久
(愛知県名古屋市と福島県須賀川市, 10月26.7日, 60秒露出9枚のスタック, 愛知県の新城観測所の
0.35-m f/5 反射望遠鏡: 中程度に集光した7"のコマが見えるが尾はなかった。全光度は19.2等で
あった)ら、他のCCD位置観測者によって彗星状と観測された。

彗星機能の報告は次の通り:

OC   Date        Reporter           Coma    Tail    PA          Exposures
F52  2020-09-25  R. Weryk           1".1                          4x45s
F51  2020-10-23  R. Weryk           0".8      4"    160-220       4x60s
H06  2020-10-24  H. Sato            6"                            8x120s
L07  2020-10-26  E. Guido           8"                           48x180s

発見位置は次のとおり、

     2020 UT             R.A. (2000) Decl.       Mag.
     Oct. 22.55791    7 55 50.35   +20 57 54.3   20.4
          22.57090    7 55 50.35   +20 57 58.1   20.2
          22.58389    7 55 50.37   +20 58 01.6   20.4
          22.59699    7 55 50.38   +20 58 05.5   20.2
          23.53619    7 55 51.35   +21 02 29.0   20.6
          23.55050    7 55 51.36   +21 02 33.1   20.5
          23.56417    7 55 51.35   +21 02 37.0   20.6
          23.57783    7 55 51.35   +21 02 40.9   20.4
          23.95905    7 55 51.54   +21 04 28.4   19.0
          23.96088    7 55 51.54   +21 04 28.9   19.0
          23.96271    7 55 51.53   +21 04 29.5   19.0

MPCの楕円軌道要素、位置推算表は次のとおり、

Orbital elements:
    C/2020 U5 (PANSTARRS)                                                       
Epoch 2022 Apr. 11.0 TT = JDT 2459680.5                                         
T 2022 Apr. 28.51920 TT                                 Rudenko                 
q   3.7596557            (2000.0)            P               Q                  
z  +0.0009034      Peri.   75.40023     +0.04152038     +0.31872710             
 +/-0.0004482      Node   107.33569     -0.12769106     -0.93828946             
e   0.9966036      Incl.   97.25323     +0.99094453     -0.13426063             
From 41 observations 2020 Sept. 25-Oct. 28, mean residual 0".3.                 
                                                                                
    C/2020 U5 (PANSTARRS)                                                       
Epoch 2020 Dec. 17.0 TT = JDT 2459200.5                                         
T 2022 Apr. 28.41093 TT                                 Rudenko                 
q   3.7595143            (2000.0)            P               Q                  
z  +0.0007216      Peri.   75.39283     +0.04161064     +0.31888662             
 +/-0.0004482      Node   107.34266     -0.12750919     -0.93825578             
e   0.9972872      Incl.   97.26355     +0.99096416     -0.13411717             
From 41 observations 2020 Sept. 25-Oct. 28, mean residual 0".3.                 
                                                                                
Ephemeris:
Date    TT    R. A. (2000) Decl.     Delta      r    Elong.  Phase   m1
2020 09 28    07 52 02.7 +19 22 54   6.4259  6.1342    68.7     8.8  19.9
...
2020 10 13    07 55 05.6 +20 16 38   6.0830  6.0429    83.0     9.4  19.7
...
2020 10 21    07 55 47.3 +20 50 45   5.8959  5.9944    90.9     9.6  19.6
...
2020 10 27    07 55 49.1 +21 19 14   5.7558  5.9581    96.9     9.5  19.6
2020 10 28    07 55 46.8 +21 24 15   5.7325  5.9520    98.0     9.5  19.5
2020 10 29    07 55 43.7 +21 29 19   5.7093  5.9460    99.0     9.5  19.5
...
2020 11 04    07 55 08.6 +22 01 23   5.5714  5.9098   105.2     9.3  19.4
...
2020 11 12    07 53 34.9 +22 48 30   5.3926  5.8617   113.7     8.9  19.3
...
2020 11 27    07 48 02.3 +24 30 23   5.0834  5.7718   130.4     7.5  19.1

(MPEC 2020-U261、CBET 4881)

スレッド表示 | 古いものから 前のトピック | 次のトピック | トップ

投稿するにはまず登録を
 
© 1999 Tsutomu Seki.